FIN1EG EFHK-EPKK

Flight info

Callsign FIN1EG
Flight time 1h 40m
Altitude 34000
Route KOIVU Y123 LARTI DCT LUTAL DCT BERIL DCT BOKSU DCT TITUV M985 EVINA M66 KUKAM
Aircraft A321/M-SDE1E2E3FGHIJ1M1RWXYZ/LB1

Departure

Time 2026-04-25 17:05
Airport Helsinki Vantaa Airport (EFHK)

Arrival

Time 2026-04-25 18:45
Airport Kraków John Paul II International Airport (EPKK)
Time Latitude Longitude Altitude Speed Heading
2026-04-25 16:39 60.31945 24.96680 167 ft 0 kts 137°
2026-04-25 16:57 60.31946 24.96679 167 ft 1 kts 137°
2026-04-25 16:57 60.31956 24.96658 167 ft 3 kts 124°
2026-04-25 16:58 60.31965 24.96623 167 ft 3 kts 100°
2026-04-25 16:58 60.31966 24.96586 167 ft 3 kts 74°
2026-04-25 16:58 60.31960 24.96555 167 ft 2 kts 49°
2026-04-25 16:58 60.31958 24.96551 167 ft 0 kts 47°
2026-04-25 17:00 60.31960 24.96555 167 ft 1 kts 47°
2026-04-25 17:00 60.31969 24.96575 167 ft 3 kts 47°
2026-04-25 17:01 60.31985 24.96610 167 ft 4 kts 47°
2026-04-25 17:01 60.32008 24.96659 167 ft 6 kts 47°
2026-04-25 17:01 60.32037 24.96724 167 ft 7 kts 47°
2026-04-25 17:01 60.32074 24.96803 166 ft 8 kts 47°
2026-04-25 17:02 60.32123 24.96865 166 ft 9 kts 359°
2026-04-25 17:02 60.32180 24.96811 166 ft 10 kts 328°
2026-04-25 17:02 60.32242 24.96734 166 ft 11 kts 329°
2026-04-25 17:02 60.32284 24.96684 167 ft 11 kts 330°
2026-04-25 17:03 60.32350 24.96609 172 ft 6 kts 330°
2026-04-25 17:03 60.32399 24.96550 175 ft 11 kts 328°
2026-04-25 17:03 60.32404 24.96450 176 ft 6 kts 228°
2026-04-25 17:03 60.32403 24.96448 176 ft 0 kts 228°
2026-04-25 17:04 60.32388 24.96415 177 ft 23 kts 227°
2026-04-25 17:04 60.32104 24.95783 175 ft 97 kts 227°
2026-04-25 17:04 60.31502 24.94456 169 ft 156 kts 227°
2026-04-25 17:05 60.30773 24.92872 710 ft 145 kts 233°
2026-04-25 17:05 60.29019 24.90502 1646 ft 166 kts 214°
2026-04-25 17:05 60.27940 24.89300 1892 ft 188 kts 213°
2026-04-25 17:06 60.26730 24.87952 2121 ft 210 kts 213°
2026-04-25 17:06 60.25369 24.86441 2348 ft 236 kts 212°
2026-04-25 17:06 60.23875 24.84807 2914 ft 248 kts 209°
2026-04-25 17:06 60.22220 24.83770 3656 ft 256 kts 195°
2026-04-25 17:07 60.20471 24.82974 4055 ft 259 kts 195°
2026-04-25 17:07 60.18715 24.82171 4909 ft 259 kts 195°
2026-04-25 17:07 60.16949 24.81362 5717 ft 261 kts 195°
2026-04-25 17:07 60.15163 24.80542 6437 ft 265 kts 195°
2026-04-25 17:08 60.13315 24.79687 6889 ft 283 kts 196°
2026-04-25 17:08 60.11353 24.78778 7429 ft 293 kts 196°
2026-04-25 17:08 60.09324 24.77846 8044 ft 302 kts 196°
2026-04-25 17:08 60.07282 24.76911 8821 ft 305 kts 197°
2026-04-25 17:09 60.05200 24.75959 9502 ft 310 kts 197°
2026-04-25 17:09 60.03042 24.74965 9747 ft 331 kts 197°
2026-04-25 17:09 60.00722 24.73892 9898 ft 354 kts 197°
2026-04-25 17:09 59.98272 24.72767 10296 ft 366 kts 196°
2026-04-25 17:10 59.95770 24.71633 10912 ft 371 kts 196°
2026-04-25 17:10 59.93234 24.70487 11563 ft 375 kts 197°
2026-04-25 17:10 59.90676 24.69330 12219 ft 378 kts 197°
2026-04-25 17:10 59.88086 24.68157 12879 ft 382 kts 197°
2026-04-25 17:11 59.85516 24.66994 13474 ft 386 kts 197°
2026-04-25 17:11 59.82875 24.65794 14068 ft 389 kts 197°
2026-04-25 17:11 59.80229 24.64560 14680 ft 392 kts 198°
2026-04-25 17:11 59.77565 24.63293 15292 ft 394 kts 198°
2026-04-25 17:12 59.74892 24.62015 15909 ft 397 kts 198°
2026-04-25 17:12 59.72222 24.60745 16499 ft 400 kts 198°
2026-04-25 17:12 59.69501 24.59460 17114 ft 403 kts 198°
2026-04-25 17:12 59.66761 24.58179 17721 ft 406 kts 198°
2026-04-25 17:13 59.63987 24.56966 18238 ft 409 kts 197°
2026-04-25 17:13 59.62130 24.56210 18578 ft 411 kts 196°
2026-04-25 17:13 59.58341 24.54746 19286 ft 415 kts 195°
2026-04-25 17:13 59.55488 24.53670 19836 ft 418 kts 195°
2026-04-25 17:14 59.52654 24.52594 20333 ft 421 kts 195°
2026-04-25 17:14 59.49774 24.51483 20839 ft 424 kts 196°
2026-04-25 17:14 59.46870 24.50350 21352 ft 426 kts 196°
2026-04-25 17:14 59.43949 24.49207 21844 ft 429 kts 196°
2026-04-25 17:15 59.41011 24.48056 22325 ft 431 kts 196°
2026-04-25 17:15 59.38063 24.46894 22810 ft 434 kts 196°
2026-04-25 17:15 59.35094 24.45727 23238 ft 436 kts 196°
2026-04-25 17:15 59.32107 24.44564 23639 ft 438 kts 196°
2026-04-25 17:16 59.29108 24.43403 24032 ft 440 kts 196°
2026-04-25 17:16 59.26135 24.42256 24399 ft 442 kts 195°
2026-04-25 17:16 59.23109 24.41089 24793 ft 444 kts 195°
2026-04-25 17:16 59.20077 24.39918 25170 ft 445 kts 195°
2026-04-25 17:17 59.17014 24.38731 25540 ft 447 kts 195°
2026-04-25 17:17 59.13945 24.37542 25905 ft 449 kts 195°
2026-04-25 17:17 59.10910 24.36368 26275 ft 451 kts 195°
2026-04-25 17:17 59.07814 24.35169 26637 ft 453 kts 195°
2026-04-25 17:18 59.04709 24.33975 26985 ft 455 kts 195°
2026-04-25 17:18 59.01586 24.32789 27329 ft 457 kts 195°
2026-04-25 17:18 58.98450 24.31601 27683 ft 459 kts 195°
2026-04-25 17:18 58.95309 24.30407 28027 ft 461 kts 195°
2026-04-25 17:19 58.92140 24.29206 28348 ft 463 kts 195°
2026-04-25 17:19 58.89009 24.28020 28666 ft 465 kts 195°
2026-04-25 17:19 58.85822 24.26809 29014 ft 467 kts 195°
2026-04-25 17:19 58.82620 24.25592 29340 ft 469 kts 195°
2026-04-25 17:20 58.79411 24.24378 29633 ft 471 kts 195°
2026-04-25 17:20 58.76183 24.23162 29948 ft 471 kts 194°
2026-04-25 17:20 58.72961 24.21948 30336 ft 470 kts 194°
2026-04-25 17:20 58.69791 24.20754 30714 ft 468 kts 194°
2026-04-25 17:21 58.66586 24.19549 31083 ft 467 kts 194°
2026-04-25 17:21 58.63392 24.18352 31440 ft 466 kts 194°
2026-04-25 17:21 58.60207 24.17165 31814 ft 465 kts 194°
2026-04-25 17:21 58.57070 24.16001 32163 ft 464 kts 194°
2026-04-25 17:22 58.53901 24.14824 32496 ft 463 kts 194°
2026-04-25 17:22 58.51756 24.14027 32748 ft 463 kts 194°
2026-04-25 17:22 58.47569 24.12480 33219 ft 461 kts 194°
2026-04-25 17:22 58.44415 24.11311 33425 ft 461 kts 194°
2026-04-25 17:23 58.38189 24.09014 33461 ft 454 kts 194°
2026-04-25 17:23 58.32002 24.06734 33463 ft 453 kts 194°
2026-04-25 17:24 58.25810 24.04466 33477 ft 452 kts 194°
2026-04-25 17:24 58.19654 24.02221 33484 ft 452 kts 194°
2026-04-25 17:25 58.13475 23.99961 33493 ft 452 kts 194°
2026-04-25 17:25 58.07287 23.97717 33515 ft 452 kts 194°
2026-04-25 17:26 58.01113 23.95498 33514 ft 451 kts 194°
2026-04-25 17:26 57.94972 23.93289 33530 ft 451 kts 194°
2026-04-25 17:27 57.88792 23.91070 33526 ft 451 kts 194°
2026-04-25 17:27 57.84691 23.89670 33537 ft 451 kts 193°
2026-04-25 17:28 57.76440 23.86992 33531 ft 451 kts 193°
2026-04-25 17:28 57.70255 23.84990 33542 ft 451 kts 193°
2026-04-25 17:29 57.64112 23.82987 33536 ft 450 kts 193°
2026-04-25 17:29 57.57934 23.80971 33545 ft 450 kts 193°
2026-04-25 17:30 57.51754 23.78959 33544 ft 450 kts 193°
2026-04-25 17:30 57.45606 23.76963 33553 ft 450 kts 193°
2026-04-25 17:31 57.39448 23.74963 33545 ft 449 kts 193°
2026-04-25 17:31 57.33288 23.72974 33556 ft 449 kts 193°
2026-04-25 17:32 57.27129 23.71008 33554 ft 449 kts 193°
2026-04-25 17:32 57.20964 23.69044 33567 ft 448 kts 194°
2026-04-25 17:33 57.14856 23.67091 33568 ft 448 kts 194°
2026-04-25 17:33 57.08701 23.65126 33580 ft 447 kts 194°
2026-04-25 17:34 57.02559 23.63180 33578 ft 447 kts 194°
2026-04-25 17:34 56.96462 23.61265 33590 ft 447 kts 194°
2026-04-25 17:35 56.90327 23.59338 33576 ft 447 kts 194°
2026-04-25 17:35 56.84181 23.57419 33582 ft 446 kts 194°
2026-04-25 17:36 56.78087 23.55527 33909 ft 445 kts 196°
2026-04-25 17:36 56.75041 23.54583 33725 ft 442 kts 196°
2026-04-25 17:36 56.72005 23.53639 33566 ft 440 kts 196°
2026-04-25 17:37 56.66005 23.51772 33533 ft 436 kts 196°
2026-04-25 17:37 56.60010 23.49908 33534 ft 437 kts 196°
2026-04-25 17:38 56.56022 23.48675 33538 ft 438 kts 196°
2026-04-25 17:38 56.48005 23.46214 33563 ft 439 kts 196°
2026-04-25 17:39 56.41977 23.44375 33563 ft 439 kts 196°
2026-04-25 17:39 56.35978 23.42560 33580 ft 439 kts 195°
2026-04-25 17:40 56.29879 23.41182 33579 ft 442 kts 192°
2026-04-25 17:40 56.23748 23.40191 33588 ft 442 kts 192°
2026-04-25 17:41 56.17656 23.39182 33593 ft 440 kts 193°
2026-04-25 17:41 56.11568 23.38046 33593 ft 439 kts 193°
2026-04-25 17:42 56.06467 23.37070 33594 ft 439 kts 193°
2026-04-25 17:42 56.00424 23.35937 33597 ft 439 kts 193°
2026-04-25 17:43 55.94335 23.34818 33593 ft 439 kts 193°
2026-04-25 17:43 55.88285 23.33722 33602 ft 439 kts 194°
2026-04-25 17:44 55.82203 23.32599 33595 ft 438 kts 194°
2026-04-25 17:44 55.76172 23.31491 33592 ft 438 kts 194°
2026-04-25 17:45 55.71120 23.30572 33587 ft 438 kts 194°
2026-04-25 17:45 55.64012 23.29294 33593 ft 438 kts 194°
2026-04-25 17:46 55.57986 23.28207 33593 ft 437 kts 194°
2026-04-25 17:46 55.51911 23.27105 33600 ft 437 kts 194°
2026-04-25 17:47 55.45867 23.26015 33605 ft 436 kts 194°
2026-04-25 17:47 55.39861 23.24938 33609 ft 436 kts 195°
2026-04-25 17:48 55.30797 23.23309 33616 ft 435 kts 195°
2026-04-25 17:49 55.24776 23.22251 33618 ft 435 kts 195°
2026-04-25 17:49 55.18755 23.21188 33617 ft 434 kts 195°
2026-04-25 17:50 55.12774 23.20125 33616 ft 434 kts 195°
2026-04-25 17:50 55.06762 23.19058 33632 ft 433 kts 195°
2026-04-25 17:51 55.00749 23.17994 33633 ft 433 kts 195°
2026-04-25 17:51 54.94797 23.16953 33635 ft 432 kts 195°
2026-04-25 17:52 54.88814 23.15912 33639 ft 432 kts 195°
2026-04-25 17:52 54.82814 23.14871 33642 ft 432 kts 195°
2026-04-25 17:53 54.76853 23.13833 33647 ft 432 kts 195°
2026-04-25 17:53 54.70869 23.12790 33647 ft 432 kts 195°
2026-04-25 17:54 54.64908 23.11768 33649 ft 432 kts 195°
2026-04-25 17:54 54.58924 23.10739 33657 ft 432 kts 195°
2026-04-25 17:55 54.52942 23.09702 33658 ft 432 kts 195°
2026-04-25 17:55 54.46952 23.08676 33658 ft 432 kts 195°
2026-04-25 17:56 54.40995 23.07661 33660 ft 432 kts 195°
2026-04-25 17:56 54.35008 23.06643 33661 ft 432 kts 195°
2026-04-25 17:57 54.29301 23.04352 33657 ft 410 kts 212°
2026-04-25 17:57 54.24367 22.99841 33661 ft 403 kts 218°
2026-04-25 17:58 54.19443 22.95151 33660 ft 404 kts 218°
2026-04-25 17:58 54.14533 22.90523 33666 ft 405 kts 217°
2026-04-25 17:59 54.09595 22.85885 33675 ft 406 kts 217°
2026-04-25 17:59 54.04648 22.81240 33677 ft 406 kts 217°
2026-04-25 18:00 53.99695 22.76595 33683 ft 406 kts 217°
2026-04-25 18:00 53.94739 22.71952 33687 ft 407 kts 217°
2026-04-25 18:01 53.89773 22.67311 33690 ft 407 kts 217°
2026-04-25 18:01 53.84820 22.62702 33691 ft 408 kts 217°
2026-04-25 18:02 53.79837 22.58083 33703 ft 408 kts 217°
2026-04-25 18:02 53.74847 22.53470 33713 ft 409 kts 217°
2026-04-25 18:03 53.69871 22.48891 33712 ft 409 kts 217°
2026-04-25 18:03 53.64875 22.44291 33711 ft 409 kts 217°
2026-04-25 18:04 53.59868 22.39679 33716 ft 409 kts 217°
2026-04-25 18:04 53.54895 22.35122 33720 ft 409 kts 217°
2026-04-25 18:05 53.49876 22.30552 33725 ft 410 kts 217°
2026-04-25 18:05 53.44861 22.25992 33727 ft 410 kts 217°
2026-04-25 18:06 53.39835 22.21430 33726 ft 410 kts 217°
2026-04-25 18:06 53.34814 22.16889 33725 ft 410 kts 217°
2026-04-25 18:07 53.29808 22.12372 33728 ft 410 kts 217°
2026-04-25 18:07 53.24777 22.07839 33741 ft 411 kts 217°
2026-04-25 18:08 53.19763 22.03347 33733 ft 411 kts 217°
2026-04-25 18:08 53.14775 21.98715 33735 ft 409 kts 219°
2026-04-25 18:09 53.09897 21.93926 33734 ft 409 kts 219°
2026-04-25 18:09 53.04989 21.89109 33736 ft 410 kts 219°
2026-04-25 18:10 53.00048 21.84342 33738 ft 411 kts 219°
2026-04-25 18:10 52.95083 21.79600 33735 ft 411 kts 219°
2026-04-25 18:11 52.90117 21.74865 33734 ft 412 kts 219°
2026-04-25 18:11 52.85141 21.70117 33733 ft 412 kts 219°
2026-04-25 18:12 52.80188 21.65410 33741 ft 413 kts 218°
2026-04-25 18:12 52.75198 21.60690 33749 ft 414 kts 218°
2026-04-25 18:13 52.70203 21.55969 33753 ft 414 kts 218°
2026-04-25 18:13 52.65192 21.51249 33747 ft 415 kts 218°
2026-04-25 18:14 52.57650 21.44156 33747 ft 416 kts 218°
2026-04-25 18:14 52.52650 21.39471 33757 ft 416 kts 218°
2026-04-25 18:15 52.47606 21.34758 33762 ft 417 kts 218°
2026-04-25 18:15 52.42556 21.30052 33771 ft 417 kts 218°
2026-04-25 18:16 52.37499 21.25358 33783 ft 418 kts 218°
2026-04-25 18:17 52.29830 21.18629 33773 ft 429 kts 207°
2026-04-25 18:17 52.24136 21.15593 33770 ft 431 kts 206°
2026-04-25 18:18 52.18412 21.12599 33773 ft 432 kts 206°
2026-04-25 18:18 52.12682 21.09598 33776 ft 432 kts 206°
2026-04-25 18:19 52.06949 21.06595 33778 ft 433 kts 206°
2026-04-25 18:19 52.01207 21.03597 33779 ft 433 kts 206°
2026-04-25 18:20 51.95462 21.00603 33790 ft 434 kts 206°
2026-04-25 18:20 51.89754 20.97643 33771 ft 434 kts 206°
2026-04-25 18:20 51.86875 20.96153 33474 ft 433 kts 206°
2026-04-25 18:21 51.84014 20.94681 33203 ft 430 kts 205°
2026-04-25 18:21 51.81162 20.93215 32935 ft 428 kts 206°
2026-04-25 18:21 51.78325 20.91753 32657 ft 426 kts 205°
2026-04-25 18:21 51.75500 20.90299 32383 ft 424 kts 205°
2026-04-25 18:22 51.72692 20.88856 32113 ft 422 kts 205°
2026-04-25 18:22 51.67107 20.85980 31584 ft 419 kts 205°
2026-04-25 18:22 51.64339 20.84556 31324 ft 417 kts 205°
2026-04-25 18:23 51.61586 20.83144 30921 ft 412 kts 205°
2026-04-25 18:23 51.58862 20.81752 30444 ft 410 kts 205°
2026-04-25 18:23 51.56188 20.80389 29990 ft 407 kts 205°
2026-04-25 18:23 51.53496 20.79018 29476 ft 404 kts 205°
2026-04-25 18:24 51.50826 20.77659 29005 ft 400 kts 205°
2026-04-25 18:24 51.48146 20.76289 28573 ft 410 kts 205°
2026-04-25 18:24 51.45401 20.74881 28095 ft 415 kts 205°
2026-04-25 18:24 51.42655 20.73484 27638 ft 414 kts 205°
2026-04-25 18:25 51.39912 20.72099 27177 ft 411 kts 205°
2026-04-25 18:25 51.37195 20.70730 26728 ft 409 kts 205°
2026-04-25 18:25 51.34490 20.69365 26299 ft 406 kts 205°
2026-04-25 18:25 51.31803 20.68010 25868 ft 403 kts 205°
2026-04-25 18:26 51.29164 20.66682 25458 ft 400 kts 205°
2026-04-25 18:26 51.26516 20.65349 25039 ft 398 kts 205°
2026-04-25 18:26 51.23884 20.64024 24620 ft 395 kts 205°
2026-04-25 18:26 51.21262 20.62705 24207 ft 393 kts 206°
2026-04-25 18:27 51.18662 20.61394 23791 ft 390 kts 206°
2026-04-25 18:27 51.16081 20.60091 23359 ft 388 kts 206°
2026-04-25 18:27 51.14375 20.59234 23048 ft 387 kts 206°
2026-04-25 18:27 51.11808 20.57952 22609 ft 384 kts 205°
2026-04-25 18:28 51.08434 20.56277 22035 ft 380 kts 205°
2026-04-25 18:28 51.06759 20.55445 21739 ft 379 kts 205°
2026-04-25 18:28 51.04254 20.54196 21297 ft 376 kts 205°
2026-04-25 18:29 50.99282 20.51720 20411 ft 371 kts 206°
2026-04-25 18:29 50.96824 20.50494 19968 ft 368 kts 206°
2026-04-25 18:30 50.89589 20.46892 18659 ft 361 kts 205°
2026-04-25 18:30 50.87196 20.45714 18220 ft 358 kts 205°
2026-04-25 18:30 50.84820 20.44544 17736 ft 355 kts 205°
2026-04-25 18:30 50.82474 20.43393 17347 ft 350 kts 205°
2026-04-25 18:31 50.80154 20.42254 16892 ft 347 kts 205°
2026-04-25 18:31 50.77914 20.41155 16444 ft 335 kts 205°
2026-04-25 18:31 50.75723 20.40084 16003 ft 325 kts 205°
2026-04-25 18:31 50.73570 20.39025 15573 ft 322 kts 206°
2026-04-25 18:32 50.71433 20.37966 15145 ft 320 kts 206°
2026-04-25 18:32 50.69309 20.36914 14724 ft 318 kts 205°
2026-04-25 18:32 50.67204 20.35871 14297 ft 316 kts 205°
2026-04-25 18:32 50.65108 20.34838 13891 ft 315 kts 205°
2026-04-25 18:33 50.63046 20.33827 13473 ft 313 kts 205°
2026-04-25 18:33 50.60960 20.32808 13019 ft 312 kts 205°
2026-04-25 18:33 50.58883 20.31799 12570 ft 312 kts 205°
2026-04-25 18:33 50.56815 20.30792 12126 ft 311 kts 205°
2026-04-25 18:34 50.54752 20.29785 11695 ft 310 kts 205°
2026-04-25 18:34 50.52718 20.28796 11428 ft 300 kts 205°
2026-04-25 18:34 50.50749 20.27843 11175 ft 294 kts 205°
2026-04-25 18:34 50.48798 20.26892 10924 ft 292 kts 205°
2026-04-25 18:35 50.46860 20.25945 10665 ft 291 kts 205°
2026-04-25 18:35 50.44950 20.25020 10397 ft 282 kts 204°
2026-04-25 18:35 50.43103 20.24129 10051 ft 277 kts 205°
2026-04-25 18:35 50.41266 20.23239 9942 ft 278 kts 205°
2026-04-25 18:36 50.39421 20.22339 9553 ft 276 kts 205°
2026-04-25 18:36 50.37587 20.21447 9162 ft 274 kts 205°
2026-04-25 18:36 50.35769 20.20565 8827 ft 273 kts 205°
2026-04-25 18:36 50.33973 20.19697 8482 ft 273 kts 205°
2026-04-25 18:37 50.32157 20.18819 8043 ft 272 kts 205°
2026-04-25 18:37 50.30938 20.18228 7749 ft 271 kts 205°
2026-04-25 18:37 50.30570 20.18049 7657 ft 271 kts 204°
2026-04-25 18:37 50.28788 20.17192 7234 ft 270 kts 204°
2026-04-25 18:38 50.26996 20.16330 6815 ft 269 kts 204°
2026-04-25 18:38 50.25210 20.15471 6402 ft 268 kts 204°
2026-04-25 18:38 50.23430 20.14616 6001 ft 266 kts 204°
2026-04-25 18:38 50.21686 20.13780 5621 ft 264 kts 204°
2026-04-25 18:39 50.19939 20.12941 5243 ft 261 kts 204°
2026-04-25 18:39 50.18209 20.12112 4900 ft 257 kts 204°
2026-04-25 18:39 50.16516 20.11307 4601 ft 251 kts 204°
2026-04-25 18:39 50.14863 20.10519 4295 ft 245 kts 205°
2026-04-25 18:40 50.13305 20.09673 4174 ft 226 kts 217°
2026-04-25 18:40 50.12187 20.08182 4079 ft 199 kts 240°
2026-04-25 18:40 50.11623 20.06412 4038 ft 173 kts 258°
2026-04-25 18:40 50.11368 20.04629 3920 ft 166 kts 261°
2026-04-25 18:41 50.11132 20.02884 3730 ft 163 kts 261°
2026-04-25 18:41 50.10898 20.01166 3520 ft 162 kts 262°
2026-04-25 18:41 50.10664 19.99462 3317 ft 153 kts 262°
2026-04-25 18:41 50.10450 19.97903 3128 ft 145 kts 262°
2026-04-25 18:42 50.10241 19.96374 2942 ft 142 kts 262°
2026-04-25 18:42 50.10104 19.95371 2807 ft 142 kts 262°
2026-04-25 18:42 50.09828 19.93362 2553 ft 141 kts 262°
2026-04-25 18:42 50.09626 19.91891 2362 ft 140 kts 261°
2026-04-25 18:43 50.09422 19.90412 2168 ft 140 kts 261°
2026-04-25 18:43 50.09217 19.88927 1977 ft 141 kts 262°
2026-04-25 18:43 50.09012 19.87437 1787 ft 140 kts 259°
2026-04-25 18:43 50.08806 19.85946 1595 ft 141 kts 259°
2026-04-25 18:44 50.08598 19.84441 1405 ft 139 kts 258°
2026-04-25 18:44 50.08389 19.82971 1209 ft 138 kts 257°
2026-04-25 18:44 50.08192 19.81489 1048 ft 140 kts 258°
2026-04-25 18:44 50.07987 19.80021 832 ft 138 kts 257°
2026-04-25 18:45 50.07801 19.78710 791 ft 101 kts 257°
2026-04-25 18:45 50.07688 19.77935 788 ft 62 kts 257°
2026-04-25 18:45 50.07609 19.77329 792 ft 52 kts 258°
2026-04-25 18:45 50.07538 19.76891 796 ft 23 kts 231°
2026-04-25 18:46 50.07416 19.76867 791 ft 18 kts 165°
2026-04-25 18:46 50.07304 19.76941 790 ft 13 kts 113°
2026-04-25 18:46 50.07322 19.77063 790 ft 14 kts 82°
2026-04-25 18:46 50.07348 19.77250 790 ft 22 kts 77°
2026-04-25 18:47 50.07384 19.77501 790 ft 24 kts 77°
2026-04-25 18:47 50.07420 19.77762 790 ft 25 kts 79°
2026-04-25 18:47 50.07457 19.78030 790 ft 26 kts 77°
2026-04-25 18:47 50.07496 19.78307 790 ft 26 kts 77°
2026-04-25 18:48 50.07535 19.78591 790 ft 27 kts 78°
2026-04-25 18:48 50.07576 19.78885 790 ft 28 kts 77°
2026-04-25 18:48 50.07617 19.79184 790 ft 29 kts 78°
2026-04-25 18:48 50.07661 19.79497 790 ft 30 kts 77°
2026-04-25 18:49 50.07703 19.79794 790 ft 19 kts 77°
2026-04-25 18:49 50.07651 19.79887 790 ft 11 kts 163°
2026-04-25 18:49 50.07572 19.79913 790 ft 12 kts 168°
2026-04-25 18:49 50.07484 19.79943 790 ft 14 kts 167°
2026-04-25 18:50 50.07420 19.79967 790 ft 15 kts 166°
2026-04-25 18:50 50.07335 19.79997 790 ft 2 kts 165°
2026-04-25 18:50 50.07316 19.80005 790 ft 0 kts 167°